Regional Weather Roundup
Issued by NWS

Home | Current Version | Previous Version | Graphics & Text | Print | Product List | Glossary On
Versions: 1 2 3 4 5 6 7 8 9 10 11 12 13 14 15 16 17 18 19 20 21 22 23 24 25 26 27 28 29 30 31 32 33 34 35 36 37 38 39 40 41 42 43 44 45 46 47 48 49 50
000
ASUS43 KMKX 192300
RWRWI

WISCONSIN REGIONAL WEATHER ROUNDUP
NATIONAL WEATHER SERVICE MILWAUKEE/SULLIVAN WI
500 PM CST SUN FEB 19 2017

NOTE: "FAIR" INDICATES FEW OR NO CLOUDS BELOW 12,000 FEET WITH NO
SIGNIFICANT WEATHER AND/OR OBSTRUCTIONS TO VISIBILITY.

WIZ001-002-006>008-014>016-023>028-200000-
NORTHWEST WISCONSIN

CITY           SKY/WX    TMP DP  RH WIND       PRES   REMARKS
SUPERIOR ARPT  CLOUDY    37  33  86 NE10      29.97F WCI  29
ASHLAND        PTCLDY    38  31  76 N6        30.01R WCI  33
HAYWARD        CLEAR     55  30  38 E5        29.95S
SIREN          CLOUDY    55  32  41 SE3       29.92S
CUMBERLAND     CLOUDY    50  32  50 SE7       29.94R
RICE LAKE      CLOUDY    53  33  46 CALM      29.95S
CHETEK         CLOUDY    53  34  48 CALM      29.95S
LADYSMITH      PTCLDY    50  32  49 SE5       29.99S
EAU CLAIRE     NOT AVBL
MENOMONIE      PTCLDY    50  36  58 E5        29.94S
NEW RICHMOND   MOCLDY    53  38  56 SE5       29.91F
OSCEOLA        PTCLDY    53  38  57 E9        29.92F
$$

WIZ003>005-009-010-017-018-200000-
NORTH CENTRAL WISCONSIN

CITY           SKY/WX    TMP DP  RH WIND       PRES   REMARKS
MANITOWISH WTR CLOUDY    53  27  37 SE3       30.00R
ARBOR VITAE    CLEAR     57  28  33 SE3       30.00S
WOODRUFF       CLEAR     57  28  33 SE3       30.00S
RHINELANDER    CLOUDY    53  26  35 CALM      30.02R
EAGLE RIVER    CLEAR     55  23  29 CALM      30.01R
LAND O LAKES   CLEAR     54  25  32 SE3       30.03R
PHILLIPS       PTCLDY    52  28  39 SE6       29.98F
TOMAHAWK       PTCLDY    51  27  40 CALM      30.01S
MEDFORD        CLOUDY    51  31  47 SE6       29.99S
MERRILL        NOT AVBL
$$

WIZ029-030-035-036-043>047-200000-
CENTRAL WISCONSIN

CITY           SKY/WX    TMP DP  RH WIND       PRES   REMARKS
WAUSAU         CLOUDY    54  29  38 SE6       30.00R
MOSINEE        PTCLDY    54  30  40 SE6       30.02R
MARSHFIELD     PTCLDY    54  29  38 SE5       29.99R
STEVENS POINT  CLEAR     54  30  40 SE5       30.02S
WAUPACA        CLEAR     55  35  48 CALM      30.03S
WAUTOMA        CLEAR     57  35  43 SE5       30.02S
WISC RAPIDS    CLEAR     56  33  42 SE6       30.01S
CAMP DOUGLAS   NOT AVBL
$$

WIZ011>013-019>022-031-037>040-048>050-200000-
NORTHEAST WISCONSIN

CITY           SKY/WX    TMP DP  RH WIND       PRES   REMARKS
ANTIGO         PTCLDY    45  31  58 S7        30.03R
SHAWANO        CLEAR     45  34  65 CALM      30.05S
OCONTO         CLOUDY    47  30  51 E5        30.06S
STURGEON BAY   CLOUDY    43  31  62 E8        30.09R
GREEN BAY      CLEAR     56  38  50 SE3       30.05S
MANITOWOC      NOT AVBL
APPLETON       PTCLDY    54  32  43 VRB6      30.03R
CLINTONVILLE   CLEAR     52  32  46 SE6       30.04R
OSHKOSH        CLEAR     49  35  58 CALM      30.04S
$$

WIZ032>034-041-042-053>061-200000-
SOUTHWEST WISCONSIN

CITY           SKY/WX    TMP DP  RH WIND       PRES   REMARKS
LA CROSSE      PTCLDY    61  37  41 SE7       29.95S
SPARTA         PTCLDY    59  36  41 SE5       29.98S
VIROQUA        PTCLDY    55  39  55 CALM      29.98R
BOSCOBEL       CLOUDY    63  37  38 SE5       29.98F
PRAIRIE DU CHI MOCLDY    61  37  41 E7        29.96S
PLATTEVILLE    PTCLDY    60  40  46 SE7       30.00S
$$

WIZ056-057-062-063-064-067-068-200000-
SOUTH CENTRAL WISCONSIN

CITY           SKY/WX    TMP DP  RH WIND       PRES   REMARKS
REEDSBURG      CLEAR     58  37  44 SE5       29.99F
BARABOO/DELLS  CLEAR     57  36  45 SE8       30.00F
LONE ROCK      NOT AVBL
MINERAL POINT  CLOUDY    61  37  41 SE8       30.00S
MADISON        MOCLDY    57  36  45 S7        30.02S
MIDDLETON      CLEAR     60  38  44 SE5       30.02S
WATERTOWN      CLEAR     60  32  34 S5        30.03S
MONROE         CLEAR     59  37  44 SE7       30.02S
JANESVILLE     CLEAR     63  36  36 SE7       30.03R
$$

WIZ051-052-058>065-066-070>072-200000-
SOUTHEAST WISCONSIN

CITY           SKY/WX    TMP DP  RH WIND       PRES   REMARKS
MILWAUKEE      MOCLDY    47  31  53 SE7       30.07R
WAUKESHA       CLEAR     54  34  47 SE9       30.06R
MILWAUKEE/TIMM CLEAR     52  27  37 E6        30.07R
RACINE         PTCLDY    47  31  53 SE7       30.08S
KENOSHA        CLOUDY    49  32  52 E7        30.06S
FOND DU LAC    CLEAR     58  37  45 S6        30.04R
SHEBOYGAN      CLEAR     46  31  55 E7        30.07R
WEST BEND      CLOUDY    52  32  46 SE8       30.05S
JUNEAU         CLEAR     58  41  53 S3        30.05R
$$

LSZ147-162-200000-
LAKE SUPERIOR

STATION/POSITION TIME  TEMP    WIND        PRES    WAVE
                       AIR SEA DIR/SP/G            HT/PER
                 (UTC) (F)     (DEG/KT/KT) (MB)    (FT/S)
DEVILS ISLAND    2200   36      50/ 15/ 16 1017.1F
PORT WING        2230   36      30/ 15/ 17 1015.2S
SAXON HARBOR     2240   36     320/  3/  4 1015.9F
$$

LMZ867-665-643>646-200000-
LAKE MICHIGAN

STATION/POSITION TIME  TEMP    WIND        PRES    WAVE
                       AIR SEA DIR/SP/G            HT/PER
                 (UTC) (F)     (DEG/KT/KT) (MB)    (FT/S)
CHAMBERS ISLAND  2240   44     100/  4/  8 1018.3R
NORTHPORT PIER   2240   39     140/  7/  8 1018.6S
SISTER BAY       2205   48     130/  8/ 11   N/A
KEWAUNEE LAKESHO 2230   42      CALM  /  3 1018.2R
SHEBOYGAN LAKESH 2200   41     110/  4/  5 1018.0S
PORT WASHINGTON  2240   44      CALM  /  2 1019.3R
MILWAUKEE LAKESH 2230   43     170/  1/  2   N/A
KENOSHA   LAKESH 2200   47      CALM  /  2 1017.9
$$

TC  - TEMPERATURE IN CELSIUS
VSB - VISIBILITY IN STATUTE MILES
WCI - WIND CHILL INDEX
HX  - HEAT INDEX




USA.gov is the U.S. government's official web portal to all federal, state and local government web resources and services.